date,time,SUV Intensity [MED/Hr],UV Index,Daily total [MED],Since Last [MED]
20/06/2023,23:58:01,0.001,0.0,7.633,7.633
20/06/2023,23:59:02,0.001,0.0,7.633,0.0
21/06/2023,00:00:02,0.000,0.0,0.0,-7.633
21/06/2023,00:01:02,0.000,0.0,0.0,0.0
21/06/2023,00:02:03,0.000,0.0,0.0,0.0
21/06/2023,00:03:03,0.001,0.0,0.0,0.0
21/06/2023,00:04:02,0.000,0.0,0.0,0.0
21/06/2023,00:05:02,0.000,0.0,0.0,0.0
21/06/2023,00:06:02,-0.000,0.0,0.0,0.0
21/06/2023,00:07:02,0.000,0.0,0.0,0.0
21/06/2023,00:08:02,0.000,0.0,0.0,0.0
21/06/2023,00:09:02,0.000,0.0,0.0,0.0
21/06/2023,00:10:01,0.000,0.0,0.0,0.0
21/06/2023,00:11:02,0.000,0.0,0.0,0.0
21/06/2023,00:12:02,-0.000,0.0,0.0,0.0
21/06/2023,00:13:02,0.000,0.0,0.0,0.0
21/06/2023,00:14:02,0.000,0.0,0.0,0.0
21/06/2023,00:15:02,0.000,0.0,0.0,0.0
21/06/2023,00:16:02,0.000,0.0,0.0,0.0
21/06/2023,00:17:02,-0.000,0.0,0.0,0.0
21/06/2023,00:18:02,0.000,0.0,0.0,0.0
21/06/2023,00:19:02,-0.000,0.0,0.0,0.0
21/06/2023,00:20:02,0.000,0.0,0.0,0.0
21/06/2023,00:21:02,0.000,0.0,0.0,0.0
21/06/2023,00:22:02,0.000,0.0,0.0,0.0
21/06/2023,00:23:02,0.000,0.0,0.0,0.0
21/06/2023,00:24:02,0.000,0.0,0.0,0.0
21/06/2023,00:25:02,-0.000,0.0,0.0,0.0
21/06/2023,00:26:02,0.000,0.0,0.0,0.0
21/06/2023,00:27:01,0.000,0.0,0.0,0.0
21/06/2023,00:28:02,0.000,0.0,0.0,0.0
21/06/2023,00:29:02,0.000,0.0,0.0,0.0
21/06/2023,00:30:02,0.000,0.0,0.0,0.0
21/06/2023,00:31:02,0.000,0.0,0.0,0.0
21/06/2023,00:32:02,0.000,0.0,0.0,0.0
21/06/2023,00:33:02,0.000,0.0,0.0,0.0
21/06/2023,00:34:02,-0.000,0.0,0.0,0.0
21/06/2023,00:35:02,0.000,0.0,0.0,0.0
21/06/2023,00:36:02,0.000,0.0,0.0,0.0
21/06/2023,00:37:02,0.000,0.0,0.0,0.0
21/06/2023,00:38:02,0.000,0.0,0.0,0.0
21/06/2023,00:39:02,0.000,0.0,0.0,0.0
21/06/2023,00:40:02,-0.000,0.0,0.0,0.0
21/06/2023,00:41:02,0.000,0.0,0.0,0.0
21/06/2023,00:42:02,0.000,0.0,0.0,0.0
21/06/2023,00:43:02,0.000,0.0,0.0,0.0
21/06/2023,00:44:02,0.000,0.0,0.0,0.0
21/06/2023,00:45:02,0.000,0.0,0.0,0.0
21/06/2023,00:46:02,0.000,0.0,0.0,0.0
21/06/2023,00:47:02,0.000,0.0,0.0,0.0
21/06/2023,00:48:02,0.000,0.0,0.0,0.0
21/06/2023,00:49:02,-0.000,0.0,0.0,0.0
21/06/2023,00:50:02,0.000,0.0,0.0,0.0
21/06/2023,00:51:03,0.000,0.0,0.0,0.0
21/06/2023,00:52:02,0.000,0.0,0.0,0.0
21/06/2023,00:53:02,0.000,0.0,0.0,0.0
21/06/2023,00:54:02,0.000,0.0,0.0,0.0
21/06/2023,00:55:02,0.000,0.0,0.0,0.0
21/06/2023,00:56:02,0.000,0.0,0.0,0.0
21/06/2023,00:57:02,0.000,0.0,0.0,0.0
21/06/2023,00:58:02,0.000,0.0,0.0,0.0
21/06/2023,00:59:02,0.000,0.0,0.0,0.0
21/06/2023,01:00:02,0.000,0.0,0.0,0.0
21/06/2023,01:01:02,0.000,0.0,0.0,0.0
21/06/2023,01:02:02,0.000,0.0,0.0,0.0
21/06/2023,01:03:02,0.000,0.0,0.0,0.0
21/06/2023,01:04:02,0.000,0.0,0.0,0.0
21/06/2023,01:05:02,0.000,0.0,0.0,0.0
21/06/2023,01:06:02,0.000,0.0,0.0,0.0
21/06/2023,01:07:02,-0.000,0.0,0.0,0.0
21/06/2023,01:08:01,0.000,0.0,0.0,0.0
21/06/2023,01:09:01,0.000,0.0,0.0,0.0
21/06/2023,01:10:02,0.000,0.0,0.0,0.0
21/06/2023,01:11:02,0.000,0.0,0.0,0.0
21/06/2023,01:12:02,0.000,0.0,0.0,0.0
21/06/2023,01:13:03,0.000,0.0,0.0,0.0
21/06/2023,01:14:02,0.000,0.0,0.0,0.0
21/06/2023,01:15:02,0.000,0.0,0.0,0.0
21/06/2023,01:16:02,0.000,0.0,0.0,0.0
21/06/2023,01:17:02,0.000,0.0,0.0,0.0
21/06/2023,01:18:02,0.000,0.0,0.0,0.0
21/06/2023,01:19:02,0.000,0.0,0.0,0.0
21/06/2023,01:20:02,0.000,0.0,0.0,0.0
21/06/2023,01:21:02,-0.000,0.0,0.0,0.0
21/06/2023,01:22:02,0.000,0.0,0.0,0.0
21/06/2023,01:23:02,0.000,0.0,0.0,0.0
21/06/2023,01:24:02,0.000,0.0,0.0,0.0
21/06/2023,01:25:02,0.000,0.0,0.0,0.0
21/06/2023,01:26:02,0.000,0.0,0.0,0.0
21/06/2023,01:27:02,0.000,0.0,0.0,0.0
21/06/2023,01:28:02,-0.000,0.0,0.0,0.0
21/06/2023,01:29:02,0.000,0.0,0.0,0.0
21/06/2023,01:30:03,0.000,0.0,0.0,0.0
21/06/2023,01:31:02,0.000,0.0,0.0,0.0
21/06/2023,01:32:02,0.001,0.0,0.0,0.0
21/06/2023,01:33:02,0.000,0.0,0.0,0.0
21/06/2023,01:34:02,0.000,0.0,0.0,0.0
21/06/2023,01:35:02,0.001,0.0,0.0,0.0
21/06/2023,01:36:02,0.000,0.0,0.0,0.0
21/06/2023,01:37:02,0.000,0.0,0.0,0.0
21/06/2023,01:38:02,0.001,0.0,0.0,0.0
21/06/2023,01:39:02,0.000,0.0,0.0,0.0
21/06/2023,01:40:02,0.000,0.0,0.0,0.0
21/06/2023,01:41:01,0.000,0.0,0.0,0.0
21/06/2023,01:42:02,0.000,0.0,0.0,0.0
21/06/2023,01:43:02,0.001,0.0,0.0,0.0
21/06/2023,01:44:01,0.001,0.0,0.0,0.0
21/06/2023,01:45:24,0.000,0.0,0.0,0.0
21/06/2023,01:47:02,0.000,0.0,0.0,0.0
21/06/2023,01:48:02,0.000,0.0,0.0,0.0
21/06/2023,01:49:02,0.000,0.0,0.0,0.0
21/06/2023,01:50:02,0.000,0.0,0.0,0.0
21/06/2023,01:51:03,0.000,0.0,0.0,0.0
21/06/2023,01:52:02,0.001,0.0,0.0,0.0
21/06/2023,01:53:02,0.000,0.0,0.0,0.0
21/06/2023,01:54:02,0.000,0.0,0.0,0.0
21/06/2023,01:55:02,0.000,0.0,0.0,0.0
21/06/2023,01:56:02,0.000,0.0,0.0,0.0
21/06/2023,01:57:02,0.000,0.0,0.0,0.0
21/06/2023,01:58:02,0.000,0.0,0.0,0.0
21/06/2023,01:59:01,0.000,0.0,0.0,0.0
21/06/2023,02:00:02,0.000,0.0,0.0,0.0
21/06/2023,02:01:02,0.000,0.0,0.0,0.0
21/06/2023,02:02:02,0.001,0.0,0.0,0.0
21/06/2023,02:03:02,0.000,0.0,0.0,0.0
21/06/2023,02:04:02,0.000,0.0,0.0,0.0
21/06/2023,02:05:02,0.000,0.0,0.0,0.0
21/06/2023,02:06:02,0.000,0.0,0.0,0.0
21/06/2023,02:07:02,0.001,0.0,0.0,0.0
21/06/2023,02:08:02,0.001,0.0,0.0,0.0
21/06/2023,02:09:02,0.001,0.0,0.0,0.0
21/06/2023,02:10:03,0.000,0.0,0.0,0.0
21/06/2023,02:11:02,0.001,0.0,0.0,0.0
21/06/2023,02:12:02,0.001,0.0,0.0,0.0
21/06/2023,02:13:02,0.001,0.0,0.0,0.0
21/06/2023,02:14:03,0.001,0.0,0.0,0.0
21/06/2023,02:15:02,-0.000,0.0,0.0,0.0
21/06/2023,02:16:02,0.000,0.0,0.0,0.0
21/06/2023,02:17:03,0.000,0.0,0.0,0.0
21/06/2023,02:18:03,-0.000,0.0,0.0,0.0
21/06/2023,02:19:02,0.001,0.0,0.0,0.0
21/06/2023,02:20:02,0.001,0.0,0.0,0.0
21/06/2023,02:21:03,0.000,0.0,0.0,0.0
21/06/2023,02:22:02,-0.000,0.0,0.0,0.0
21/06/2023,02:23:02,0.002,0.0,0.0,0.0
21/06/2023,02:24:04,0.001,0.0,0.0,0.0
21/06/2023,02:25:02,0.001,0.0,0.0,0.0
21/06/2023,02:26:03,0.001,0.0,0.0,0.0
21/06/2023,02:27:02,0.001,0.0,0.0,0.0
21/06/2023,02:28:02,0.000,0.0,0.0,0.0
21/06/2023,02:29:02,0.001,0.0,0.0,0.0
21/06/2023,02:30:02,-0.000,0.0,0.0,0.0
21/06/2023,02:31:01,0.001,0.0,0.0,0.0
21/06/2023,02:32:02,0.001,0.0,0.0,0.0
21/06/2023,02:33:02,0.001,0.0,0.0,0.0
21/06/2023,02:34:02,0.001,0.0,0.0,0.0
21/06/2023,02:35:02,0.001,0.0,0.0,0.0
21/06/2023,02:36:03,0.001,0.0,0.0,0.0
21/06/2023,02:37:02,0.001,0.0,0.0,0.0
21/06/2023,02:38:02,0.001,0.0,0.0,0.0
21/06/2023,02:39:02,0.000,0.0,0.0,0.0
21/06/2023,02:40:03,0.001,0.0,0.0,0.0
21/06/2023,02:41:02,0.001,0.0,0.0,0.0
21/06/2023,02:42:02,0.000,0.0,0.0,0.0
21/06/2023,02:43:02,0.001,0.0,0.0,0.0
21/06/2023,02:44:02,0.001,0.0,0.0,0.0
21/06/2023,02:45:03,0.001,0.0,0.0,0.0
21/06/2023,02:46:02,0.000,0.0,0.0,0.0
21/06/2023,02:47:02,0.000,0.0,0.0,0.0
21/06/2023,02:48:03,-0.000,0.0,0.0,0.0
21/06/2023,02:49:03,0.001,0.0,0.0,0.0
21/06/2023,02:50:02,0.001,0.0,0.0,0.0
21/06/2023,02:51:03,0.001,0.0,0.0,0.0
21/06/2023,02:52:02,0.001,0.0,0.0,0.0
21/06/2023,02:53:02,0.001,0.0,0.0,0.0
21/06/2023,02:54:03,0.001,0.0,0.0,0.0
21/06/2023,02:55:02,0.001,0.0,0.0,0.0
21/06/2023,02:56:02,0.001,0.0,0.0,0.0
21/06/2023,02:57:02,0.000,0.0,0.0,0.0
21/06/2023,02:58:02,0.000,0.0,0.0,0.0
21/06/2023,02:59:02,0.001,0.0,0.0,0.0
21/06/2023,03:00:03,0.001,0.0,0.0,0.0
21/06/2023,03:01:02,0.001,0.0,0.0,0.0
21/06/2023,03:02:02,0.000,0.0,0.0,0.0
21/06/2023,03:03:02,0.001,0.0,0.0,0.0
21/06/2023,03:04:02,0.000,0.0,0.0,0.0
21/06/2023,03:05:02,0.001,0.0,0.0,0.0
21/06/2023,03:06:02,0.001,0.0,0.0,0.0
21/06/2023,03:07:02,0.001,0.0,0.0,0.0
21/06/2023,03:08:02,0.001,0.0,0.0,0.0
21/06/2023,03:09:03,0.001,0.0,0.0,0.0
21/06/2023,03:10:02,0.001,0.0,0.0,0.0
21/06/2023,03:11:02,0.001,0.0,0.0,0.0
21/06/2023,03:12:02,0.001,0.0,0.0,0.0
21/06/2023,03:13:03,0.000,0.0,0.0,0.0
21/06/2023,03:14:02,0.001,0.0,0.0,0.0
21/06/2023,03:15:03,0.000,0.0,0.0,0.0
21/06/2023,03:16:02,0.000,0.0,0.0,0.0
21/06/2023,03:17:02,0.000,0.0,0.0,0.0
21/06/2023,03:18:02,0.001,0.0,0.0,0.0
21/06/2023,03:19:02,0.001,0.0,0.0,0.0
21/06/2023,03:20:03,0.001,0.0,0.0,0.0
21/06/2023,03:21:03,0.001,0.0,0.0,0.0
21/06/2023,03:22:02,0.002,0.0,0.0,0.0
21/06/2023,03:23:02,0.001,0.0,0.0,0.0
21/06/2023,03:24:02,0.001,0.0,0.0,0.0
21/06/2023,03:25:02,0.002,0.0,0.0,0.0
21/06/2023,03:26:03,0.001,0.0,0.0,0.0
21/06/2023,03:27:03,0.001,0.0,0.0,0.0
21/06/2023,03:28:02,0.002,0.0,0.0,0.0
21/06/2023,03:29:02,0.002,0.0,0.0,0.0
21/06/2023,03:30:03,0.002,0.0,0.0,0.0
21/06/2023,03:31:02,0.003,0.0,0.0,0.0
21/06/2023,03:32:02,0.002,0.0,0.0,0.0
21/06/2023,03:33:02,0.002,0.0,0.0,0.0
21/06/2023,03:34:02,0.002,0.0,0.0,0.0
21/06/2023,03:35:02,0.002,0.0,0.0,0.0
21/06/2023,03:36:02,0.003,0.0,0.0,0.0
21/06/2023,03:37:02,0.002,0.0,0.0,0.0
21/06/2023,03:38:02,0.002,0.0,0.0,0.0
21/06/2023,03:39:02,0.002,0.0,0.0,0.0
21/06/2023,03:40:02,0.003,0.0,0.0,0.0
21/06/2023,03:41:02,0.003,0.0,0.0,0.0
21/06/2023,03:42:02,0.003,0.0,0.0,0.0
21/06/2023,03:43:02,0.003,0.0,0.0,0.0
21/06/2023,03:44:03,0.003,0.0,0.0,0.0
21/06/2023,03:45:02,0.003,0.0,0.0,0.0
21/06/2023,03:46:03,0.003,0.0,0.0,0.0
21/06/2023,03:47:02,0.004,0.0,0.0,0.0
21/06/2023,03:48:02,0.004,0.0,0.0,0.0
21/06/2023,03:49:02,0.004,0.0,0.0,0.0
21/06/2023,03:50:02,0.004,0.0,0.0,0.0
21/06/2023,03:51:03,0.004,0.0,0.0,0.0
21/06/2023,03:52:02,0.004,0.0,0.0,0.0
21/06/2023,03:53:02,0.005,0.0,0.0,0.0
21/06/2023,03:54:03,0.005,0.0,0.0,0.0
21/06/2023,03:55:03,0.005,0.0,0.0,0.0
21/06/2023,03:56:03,0.005,0.0,0.0,0.0
21/06/2023,03:57:02,0.005,0.0,0.0,0.0
21/06/2023,03:58:02,0.005,0.0,0.0,0.0
21/06/2023,03:59:02,0.005,0.0,0.0,0.0
21/06/2023,04:00:02,0.006,0.0,0.0,0.0
21/06/2023,04:01:03,0.006,0.0,0.0,0.0
21/06/2023,04:02:02,0.006,0.0,0.0,0.0
21/06/2023,04:03:03,0.007,0.0,0.0,0.0
21/06/2023,04:04:02,0.008,0.0,0.0,0.0
21/06/2023,04:05:02,0.007,0.0,0.0,0.0
21/06/2023,04:06:02,0.007,0.0,0.001,0.001
21/06/2023,04:07:02,0.008,0.0,0.001,0.0
21/06/2023,04:08:02,0.008,0.0,0.001,0.0
21/06/2023,04:09:03,0.008,0.0,0.001,0.0
21/06/2023,04:10:03,0.008,0.0,0.001,0.0
21/06/2023,04:11:02,0.009,0.0,0.001,0.0
21/06/2023,04:12:02,0.009,0.0,0.001,0.0
21/06/2023,04:13:02,0.009,0.0,0.002,0.001
21/06/2023,04:14:03,0.011,0.0,0.002,0.0
21/06/2023,04:15:02,0.011,0.0,0.002,0.0
21/06/2023,04:16:02,0.011,0.0,0.002,0.0
21/06/2023,04:17:02,0.011,0.0,0.002,0.0
21/06/2023,04:18:03,0.010,0.0,0.002,0.0
21/06/2023,04:19:02,0.012,0.0,0.003,0.001
21/06/2023,04:20:03,0.012,0.0,0.003,0.0
21/06/2023,04:21:02,0.012,0.0,0.003,0.0
21/06/2023,04:22:03,0.014,0.0,0.003,0.0
21/06/2023,04:23:03,0.013,0.0,0.003,0.0
21/06/2023,04:24:02,0.014,0.0,0.004,0.001
21/06/2023,04:25:02,0.014,0.0,0.004,0.0
21/06/2023,04:26:02,0.015,0.0,0.004,0.0
21/06/2023,04:27:03,0.015,0.0,0.004,0.0
21/06/2023,04:28:02,0.016,0.0,0.005,0.001
21/06/2023,04:29:03,0.017,0.0,0.005,0.0
21/06/2023,04:30:02,0.017,0.0,0.005,0.0
21/06/2023,04:31:03,0.018,0.0,0.006,0.001
21/06/2023,04:32:02,0.018,0.0,0.006,0.0
21/06/2023,04:33:03,0.019,0.0,0.006,0.0
21/06/2023,04:34:02,0.019,0.0,0.006,0.0
21/06/2023,04:35:03,0.021,0.0,0.007,0.001
21/06/2023,04:36:03,0.020,0.0,0.007,0.0
21/06/2023,04:37:03,0.021,0.0,0.007,0.0
21/06/2023,04:38:03,0.021,0.0,0.008,0.001
21/06/2023,04:39:02,0.022,0.0,0.008,0.0
21/06/2023,04:40:04,0.023,0.0,0.009,0.001
21/06/2023,04:41:02,0.023,0.0,0.009,0.0
21/06/2023,04:42:02,0.025,0.0,0.009,0.0
21/06/2023,04:43:02,0.025,0.0,0.01,0.001
21/06/2023,04:44:03,0.026,0.0,0.01,0.0
21/06/2023,04:45:02,0.027,0.0,0.011,0.001
21/06/2023,04:46:03,0.027,0.0,0.011,0.0
21/06/2023,04:47:03,0.028,0.0,0.012,0.001
21/06/2023,04:48:03,0.029,0.0,0.012,0.0
21/06/2023,04:49:03,0.029,0.0,0.012,0.0
21/06/2023,04:50:02,0.030,0.0,0.013,0.001
21/06/2023,04:51:02,0.031,0.0,0.013,0.0
21/06/2023,04:52:03,0.032,0.0,0.014,0.001
21/06/2023,04:53:02,0.033,0.0,0.015,0.001
21/06/2023,04:54:03,0.034,0.0,0.015,0.0
21/06/2023,04:55:02,0.035,0.0,0.016,0.001
21/06/2023,04:56:03,0.036,0.0,0.016,0.0
21/06/2023,04:57:03,0.036,0.0,0.017,0.001
21/06/2023,04:58:02,0.037,0.0,0.017,0.0
21/06/2023,04:59:03,0.037,0.0,0.018,0.001
21/06/2023,05:00:03,0.038,0.0,0.019,0.001
21/06/2023,05:01:03,0.038,0.0,0.019,0.0
21/06/2023,05:02:02,0.038,0.0,0.02,0.001
21/06/2023,05:03:02,0.038,0.0,0.021,0.001
21/06/2023,05:04:03,0.039,0.0,0.021,0.0
21/06/2023,05:05:02,0.040,0.0,0.022,0.001
21/06/2023,05:06:02,0.041,0.0,0.023,0.001
21/06/2023,05:07:02,0.041,0.0,0.023,0.0
21/06/2023,05:08:03,0.041,0.0,0.024,0.001
21/06/2023,05:09:03,0.040,0.0,0.025,0.001
21/06/2023,05:10:02,0.042,0.0,0.025,0.0
21/06/2023,05:11:03,0.044,0.0,0.026,0.001
21/06/2023,05:12:03,0.048,0.0,0.027,0.001
21/06/2023,05:13:02,0.049,0.0,0.028,0.001
21/06/2023,05:14:03,0.050,0.0,0.028,0.0
21/06/2023,05:15:02,0.052,0.0,0.029,0.001
21/06/2023,05:16:03,0.054,0.0,0.03,0.001
21/06/2023,05:17:02,0.055,0.0,0.031,0.001
21/06/2023,05:18:03,0.055,0.0,0.032,0.001
21/06/2023,05:19:03,0.054,0.0,0.033,0.001
21/06/2023,05:20:03,0.057,0.0,0.034,0.001
21/06/2023,05:21:03,0.058,0.0,0.035,0.001
21/06/2023,05:22:02,0.059,0.0,0.036,0.001
21/06/2023,05:23:02,0.062,0.0,0.037,0.001
21/06/2023,05:24:02,0.065,0.0,0.038,0.001
21/06/2023,05:25:03,0.069,0.0,0.039,0.001
21/06/2023,05:26:02,0.070,0.0,0.04,0.001
21/06/2023,05:27:02,0.070,0.0,0.041,0.001
21/06/2023,05:28:02,0.071,0.0,0.043,0.002
21/06/2023,05:29:03,0.074,0.0,0.044,0.001
21/06/2023,05:30:02,0.077,0.0,0.045,0.001
21/06/2023,05:31:02,0.075,0.0,0.046,0.001
21/06/2023,05:32:03,0.077,0.0,0.048,0.002
21/06/2023,05:33:02,0.080,0.0,0.049,0.001
21/06/2023,05:34:02,0.083,0.0,0.05,0.001
21/06/2023,05:35:02,0.087,0.0,0.052,0.002
21/06/2023,05:36:03,0.087,0.0,0.053,0.001
21/06/2023,05:37:02,0.087,0.0,0.055,0.002
21/06/2023,05:38:03,0.085,0.0,0.056,0.001
21/06/2023,05:39:02,0.085,0.0,0.057,0.001
21/06/2023,05:40:03,0.086,0.0,0.059,0.002
21/06/2023,05:41:02,0.086,0.0,0.06,0.001
21/06/2023,05:42:03,0.085,0.0,0.062,0.002
21/06/2023,05:43:02,0.085,0.0,0.063,0.001
21/06/2023,05:44:03,0.085,0.0,0.064,0.001
21/06/2023,05:45:02,0.088,0.0,0.066,0.002
21/06/2023,05:46:02,0.094,0.0,0.067,0.001
21/06/2023,05:47:03,0.094,0.0,0.069,0.002
21/06/2023,05:48:02,0.097,0.0,0.071,0.002
21/06/2023,05:49:03,0.096,0.0,0.072,0.001
21/06/2023,05:50:02,0.095,0.0,0.074,0.002
21/06/2023,05:51:03,0.094,0.0,0.075,0.001
21/06/2023,05:52:03,0.088,0.0,0.077,0.002
21/06/2023,05:53:03,0.089,0.0,0.078,0.001
21/06/2023,05:54:02,0.094,0.0,0.08,0.002
21/06/2023,05:55:02,0.096,0.0,0.081,0.001
21/06/2023,05:56:02,0.094,0.0,0.083,0.002
21/06/2023,05:57:03,0.093,0.0,0.085,0.002
21/06/2023,05:58:03,0.090,0.0,0.086,0.001
21/06/2023,05:59:02,0.088,0.0,0.088,0.002
21/06/2023,06:00:03,0.089,0.0,0.089,0.001
21/06/2023,06:01:03,0.089,0.0,0.091,0.002
21/06/2023,06:02:02,0.093,0.0,0.092,0.001
21/06/2023,06:03:03,0.102,0.0,0.094,0.002
21/06/2023,06:04:02,0.110,0.0,0.095,0.001
21/06/2023,06:05:02,0.116,0.0,0.097,0.002
21/06/2023,06:06:02,0.114,0.0,0.099,0.002
21/06/2023,06:07:02,0.123,0.0,0.101,0.002
21/06/2023,06:08:02,0.116,0.0,0.103,0.002
21/06/2023,06:09:03,0.130,0.0,0.105,0.002
21/06/2023,06:10:03,0.130,0.0,0.107,0.002
21/06/2023,06:11:02,0.136,0.0,0.11,0.003
21/06/2023,06:12:03,0.132,0.0,0.112,0.002
21/06/2023,06:13:03,0.125,0.0,0.114,0.002
21/06/2023,06:14:02,0.121,0.0,0.116,0.002
21/06/2023,06:15:03,0.117,0.0,0.118,0.002
21/06/2023,06:16:02,0.113,0.0,0.12,0.002
21/06/2023,06:17:02,0.127,0.0,0.122,0.002
21/06/2023,06:18:03,0.130,0.0,0.124,0.002
21/06/2023,06:19:03,0.130,0.0,0.126,0.002
21/06/2023,06:20:02,0.139,0.0,0.129,0.003
21/06/2023,06:21:03,0.132,0.0,0.131,0.002
21/06/2023,06:22:02,0.125,0.0,0.133,0.002
21/06/2023,06:23:03,0.129,0.0,0.135,0.002
21/06/2023,06:24:02,0.143,0.0,0.137,0.002
21/06/2023,06:25:03,0.158,0.0,0.14,0.003
21/06/2023,06:26:02,0.165,0.0,0.142,0.002
21/06/2023,06:27:03,0.168,0.0,0.145,0.003
21/06/2023,06:28:03,0.170,0.0,0.148,0.003
21/06/2023,06:29:03,0.182,0.0,0.151,0.003
21/06/2023,06:30:03,0.201,0.0,0.154,0.003
21/06/2023,06:31:02,0.218,1.0,0.158,0.004
21/06/2023,06:32:03,0.217,0.0,0.162,0.004
21/06/2023,06:33:03,0.224,1.0,0.165,0.003
21/06/2023,06:34:02,0.233,1.0,0.169,0.004
21/06/2023,06:35:03,0.246,1.0,0.173,0.004
21/06/2023,06:36:02,0.240,1.0,0.177,0.004
21/06/2023,06:37:02,0.258,1.0,0.181,0.004
21/06/2023,06:38:02,0.260,1.0,0.185,0.004
21/06/2023,06:39:03,0.237,1.0,0.189,0.004
21/06/2023,06:40:03,0.236,1.0,0.193,0.004
21/06/2023,06:41:02,0.235,1.0,0.197,0.004
21/06/2023,06:42:03,0.243,1.0,0.201,0.004
21/06/2023,06:43:02,0.257,1.0,0.205,0.004
21/06/2023,06:44:03,0.251,1.0,0.209,0.004
21/06/2023,06:45:03,0.254,1.0,0.213,0.004
21/06/2023,06:46:02,0.267,1.0,0.218,0.005
21/06/2023,06:47:03,0.311,1.0,0.223,0.005
21/06/2023,06:48:02,0.304,1.0,0.228,0.005
21/06/2023,06:49:03,0.274,1.0,0.232,0.004
21/06/2023,06:50:02,0.274,1.0,0.237,0.005
21/06/2023,06:51:03,0.271,1.0,0.242,0.005
21/06/2023,06:52:02,0.303,1.0,0.247,0.005
21/06/2023,06:53:03,0.282,1.0,0.251,0.004
21/06/2023,06:54:02,0.331,1.0,0.256,0.005
21/06/2023,06:55:03,0.290,1.0,0.261,0.005
21/06/2023,06:56:02,0.312,1.0,0.266,0.005
21/06/2023,06:57:03,0.355,1.0,0.272,0.006
21/06/2023,06:58:03,0.386,1.0,0.278,0.006
21/06/2023,06:59:03,0.383,1.0,0.285,0.007
21/06/2023,07:00:02,0.382,1.0,0.291,0.006
21/06/2023,07:01:03,0.401,1.0,0.297,0.006
21/06/2023,07:02:02,0.354,1.0,0.304,0.007
21/06/2023,07:03:03,0.407,1.0,0.31,0.006
21/06/2023,07:04:02,0.415,1.0,0.316,0.006
21/06/2023,07:05:03,0.417,1.0,0.323,0.007
21/06/2023,07:06:03,0.422,1.0,0.33,0.007
21/06/2023,07:07:03,0.401,1.0,0.337,0.007
21/06/2023,07:08:03,0.436,1.0,0.344,0.007
21/06/2023,07:09:02,0.441,1.0,0.351,0.007
21/06/2023,07:10:03,0.373,1.0,0.358,0.007
21/06/2023,07:11:03,0.414,1.0,0.365,0.007
21/06/2023,07:12:02,0.464,1.0,0.373,0.008
21/06/2023,07:13:02,0.465,1.0,0.38,0.007
21/06/2023,07:14:02,0.474,1.0,0.388,0.008
21/06/2023,07:15:03,0.479,1.0,0.396,0.008
21/06/2023,07:16:02,0.486,1.0,0.404,0.008
21/06/2023,07:17:03,0.492,1.0,0.412,0.008
21/06/2023,07:18:02,0.498,1.0,0.42,0.008
21/06/2023,07:19:03,0.506,1.0,0.429,0.009
21/06/2023,07:20:03,0.439,1.0,0.437,0.008
21/06/2023,07:21:03,0.505,1.0,0.445,0.008
21/06/2023,07:22:02,0.525,1.0,0.454,0.009
21/06/2023,07:23:03,0.533,1.0,0.462,0.008
21/06/2023,07:24:02,0.535,1.0,0.471,0.009
21/06/2023,07:25:03,0.537,1.0,0.48,0.009
21/06/2023,07:26:03,0.551,1.0,0.489,0.009
21/06/2023,07:27:02,0.555,1.0,0.498,0.009
21/06/2023,07:28:03,0.563,1.0,0.508,0.01
21/06/2023,07:29:03,0.570,1.0,0.517,0.009
21/06/2023,07:30:02,0.573,1.0,0.527,0.01
21/06/2023,07:31:02,0.579,1.0,0.536,0.009
21/06/2023,07:32:03,0.588,1.0,0.546,0.01
21/06/2023,07:33:02,0.595,1.0,0.556,0.01
21/06/2023,07:34:03,0.602,1.0,0.566,0.01
21/06/2023,07:35:02,0.613,1.0,0.576,0.01
21/06/2023,07:36:03,0.622,1.0,0.586,0.01
21/06/2023,07:37:03,0.631,1.0,0.597,0.011
21/06/2023,07:38:02,0.644,1.0,0.607,0.01
21/06/2023,07:39:02,0.649,1.0,0.618,0.011
21/06/2023,07:40:03,0.654,2.0,0.629,0.011
21/06/2023,07:41:03,0.668,2.0,0.64,0.011
21/06/2023,07:42:02,0.650,1.0,0.651,0.011
21/06/2023,07:43:03,0.651,1.0,0.661,0.01
21/06/2023,07:44:03,0.627,1.0,0.671,0.01
21/06/2023,07:45:02,0.550,1.0,0.681,0.01
21/06/2023,07:46:03,0.533,1.0,0.69,0.009
21/06/2023,07:47:02,0.523,1.0,0.699,0.009
21/06/2023,07:48:03,0.695,2.0,0.708,0.009
21/06/2023,07:49:03,0.562,1.0,0.718,0.01
21/06/2023,07:50:02,0.563,1.0,0.727,0.009
21/06/2023,07:51:03,0.658,2.0,0.737,0.01
21/06/2023,07:52:02,0.723,2.0,0.749,0.012
21/06/2023,07:53:03,0.740,2.0,0.761,0.012
21/06/2023,07:54:02,0.734,2.0,0.774,0.013
21/06/2023,07:55:03,0.662,2.0,0.785,0.011
21/06/2023,07:56:02,0.758,2.0,0.797,0.012
21/06/2023,07:57:03,0.766,2.0,0.81,0.013
21/06/2023,07:58:02,0.775,2.0,0.823,0.013
21/06/2023,07:59:02,0.787,2.0,0.836,0.013
21/06/2023,08:00:03,0.768,2.0,0.849,0.013
21/06/2023,08:01:02,0.800,2.0,0.861,0.012
21/06/2023,08:02:03,0.810,2.0,0.875,0.014
21/06/2023,08:03:02,0.818,2.0,0.888,0.013
21/06/2023,08:04:03,0.829,2.0,0.902,0.014
21/06/2023,08:05:02,0.836,2.0,0.916,0.014
21/06/2023,08:06:03,0.847,2.0,0.93,0.014
21/06/2023,08:07:02,0.862,2.0,0.944,0.014
21/06/2023,08:08:03,0.871,2.0,0.959,0.015
21/06/2023,08:09:02,0.882,2.0,0.973,0.014
21/06/2023,08:10:03,0.890,2.0,0.988,0.015
21/06/2023,08:11:02,0.900,2.0,1.003,0.015
21/06/2023,08:12:03,0.912,2.0,1.018,0.015
21/06/2023,08:13:03,0.920,2.0,1.033,0.015
21/06/2023,08:14:02,0.930,2.0,1.049,0.016
21/06/2023,08:15:03,0.938,2.0,1.064,0.015
21/06/2023,08:16:03,0.947,2.0,1.08,0.016
21/06/2023,08:17:03,0.955,2.0,1.096,0.016
21/06/2023,08:18:03,0.966,2.0,1.112,0.016
21/06/2023,08:19:02,0.971,2.0,1.128,0.016
21/06/2023,08:20:03,0.979,2.0,1.144,0.016
21/06/2023,08:21:02,0.983,2.0,1.161,0.017
21/06/2023,08:22:03,0.993,2.0,1.177,0.016
21/06/2023,08:23:05,1.002,2.0,1.194,0.017
21/06/2023,08:24:03,1.012,2.0,1.211,0.017
21/06/2023,08:25:03,1.014,2.0,1.227,0.016
21/06/2023,08:26:03,1.028,2.0,1.245,0.018
21/06/2023,08:27:03,1.041,2.0,1.261,0.016
21/06/2023,08:28:03,1.049,2.0,1.279,0.018
21/06/2023,08:29:03,1.060,2.0,1.296,0.017
21/06/2023,08:30:02,1.071,2.0,1.314,0.018
21/06/2023,08:31:03,1.080,2.0,1.332,0.018
21/06/2023,08:32:02,1.085,2.0,1.35,0.018
21/06/2023,08:33:03,1.096,3.0,1.368,0.018
21/06/2023,08:34:03,0.798,2.0,1.383,0.015
21/06/2023,08:35:03,0.788,2.0,1.4,0.017
21/06/2023,08:36:03,1.002,2.0,1.415,0.015
21/06/2023,08:37:02,1.127,3.0,1.433,0.018
21/06/2023,08:38:03,1.153,3.0,1.452,0.019
21/06/2023,08:39:03,0.980,2.0,1.471,0.019
21/06/2023,08:40:03,1.153,3.0,1.487,0.016
21/06/2023,08:41:03,0.851,2.0,1.502,0.015
21/06/2023,08:42:03,1.153,3.0,1.52,0.018
21/06/2023,08:43:03,1.210,3.0,1.539,0.019
21/06/2023,08:44:03,1.194,3.0,1.559,0.02
21/06/2023,08:45:03,1.006,2.0,1.578,0.019
21/06/2023,08:46:03,1.188,3.0,1.596,0.018
21/06/2023,08:47:03,1.169,3.0,1.614,0.018
21/06/2023,08:48:03,1.171,3.0,1.633,0.019
21/06/2023,08:49:03,0.850,2.0,1.65,0.017
21/06/2023,08:50:03,1.134,3.0,1.666,0.016
21/06/2023,08:51:02,1.100,3.0,1.685,0.019
21/06/2023,08:52:03,0.651,1.0,1.7,0.015
21/06/2023,08:53:03,0.641,1.0,1.71,0.01
21/06/2023,08:54:03,0.702,2.0,1.721,0.011
21/06/2023,08:55:02,0.841,2.0,1.736,0.015
21/06/2023,08:56:03,0.810,2.0,1.749,0.013
21/06/2023,08:57:02,0.856,2.0,1.763,0.014
21/06/2023,08:58:03,1.178,3.0,1.78,0.017
21/06/2023,08:59:03,0.902,2.0,1.797,0.017
21/06/2023,09:00:03,1.008,2.0,1.811,0.014
21/06/2023,09:01:03,0.636,1.0,1.824,0.013
21/06/2023,09:02:03,0.534,1.0,1.834,0.01
21/06/2023,09:03:03,0.473,1.0,1.842,0.008
21/06/2023,09:04:03,0.448,1.0,1.85,0.008
21/06/2023,09:05:02,0.453,1.0,1.857,0.007
21/06/2023,09:06:03,0.493,1.0,1.865,0.008
21/06/2023,09:07:03,0.539,1.0,1.874,0.009
21/06/2023,09:08:03,0.585,1.0,1.883,0.009
21/06/2023,09:09:03,0.625,1.0,1.893,0.01
21/06/2023,09:10:03,0.652,1.0,1.903,0.01
21/06/2023,09:11:02,0.742,2.0,1.915,0.012
21/06/2023,09:12:03,0.732,2.0,1.927,0.012
21/06/2023,09:13:02,1.257,3.0,1.942,0.015
21/06/2023,09:14:02,1.187,3.0,1.963,0.021
21/06/2023,09:15:03,0.880,2.0,1.977,0.014
21/06/2023,09:16:02,1.403,3.0,1.999,0.022
21/06/2023,09:17:03,1.477,3.0,2.024,0.025
21/06/2023,09:18:03,1.494,3.0,2.048,0.024
21/06/2023,09:19:02,1.536,4.0,2.072,0.024
21/06/2023,09:20:03,1.542,4.0,2.097,0.025
21/06/2023,09:21:03,1.384,3.0,2.123,0.026
21/06/2023,09:22:03,1.550,4.0,2.147,0.024
21/06/2023,09:23:03,1.517,3.0,2.173,0.026
21/06/2023,09:24:03,1.435,3.0,2.197,0.024
21/06/2023,09:25:02,1.315,3.0,2.22,0.023
21/06/2023,09:26:03,0.674,2.0,2.238,0.018
21/06/2023,09:27:03,0.719,2.0,2.25,0.012
21/06/2023,09:28:02,0.821,2.0,2.262,0.012
21/06/2023,09:29:03,1.390,3.0,2.281,0.019
21/06/2023,09:30:03,1.398,3.0,2.304,0.023
21/06/2023,09:31:02,1.027,2.0,2.326,0.022
21/06/2023,09:32:03,1.275,3.0,2.346,0.02
21/06/2023,09:33:03,1.156,3.0,2.367,0.021
21/06/2023,09:34:03,0.931,2.0,2.387,0.02
21/06/2023,09:35:03,0.800,2.0,2.4,0.013
21/06/2023,09:36:03,0.853,2.0,2.414,0.014
21/06/2023,09:37:03,0.933,2.0,2.428,0.014
21/06/2023,09:38:02,0.998,2.0,2.445,0.017
21/06/2023,09:39:03,1.621,4.0,2.464,0.019
21/06/2023,09:40:04,1.125,3.0,2.49,0.026
21/06/2023,09:41:04,1.667,4.0,2.516,0.026
21/06/2023,09:42:03,1.584,4.0,2.542,0.026
21/06/2023,09:43:03,1.091,3.0,2.568,0.026
21/06/2023,09:44:03,1.665,4.0,2.586,0.018
21/06/2023,09:45:03,1.531,4.0,2.612,0.026
21/06/2023,09:46:03,1.691,4.0,2.639,0.027
21/06/2023,09:47:03,1.725,4.0,2.667,0.028
21/06/2023,09:48:03,1.719,4.0,2.695,0.028
21/06/2023,09:49:03,1.537,4.0,2.72,0.025
21/06/2023,09:50:02,0.930,2.0,2.74,0.02
21/06/2023,09:51:03,0.913,2.0,2.755,0.015
21/06/2023,09:52:03,1.508,3.0,2.776,0.021
21/06/2023,09:53:03,1.502,3.0,2.802,0.026